Regional Weather Roundup
Issued by NWS

Home | Current Version | Previous Version | Graphics & Text | Print | Product List | Glossary Off
Versions: 1 2 3 4 5 6 7 8 9 10 11 12 13 14 15 16 17 18 19 20 21 22 23 24 25 26 27 28 29 30 31 32 33 34 35 36 37 38 39 40 41 42 43 44 45 46 47 48 49 50

951
ASUS43 KDTX 311901
RWRMI
MICHIGAN HOURLY REGIONAL WEATHER ROUNDUP
NATIONAL WEATHER SERVICE DETROIT/PONTIAC MI
300 PM EDT WED AUG 31 2016

NOTE: "FAIR" INDICATES FEW OR NO CLOUDS BELOW 12,000 FEET WITH NO
SIGNIFICANT WEATHER AND/OR OBSTRUCTION TO VISIBILITY.

MIZ047>049-052>055-059>063-066>070-074>076-081>083-312000-
SOUTHEAST LOWER MICHIGAN

CITY           SKY/WX    TMP DP  RH WIND       PRES   REMARKS
ADRIAN         PTSUNNY   79  69  71 N10       29.99F
ALMA           MOSUNNY   76  59  55 N6        30.04S
ANN ARBOR      MOSUNNY   78  66  66 NW13      29.98S
BAD AXE        PTSUNNY   71  61  70 N15G21    30.04S
CARO           MOSUNNY   73  63  71 N10G21    30.02F
DETROIT CITY   CLOUDY    79  66  64 N12       29.97F
DETROIT        PTSUNNY   81  67  62 N13       29.97S
FLINT          PTSUNNY   75  57  53 N14       30.02F
GROSSE ILE     LGT RAIN  72  70  92 SW6       29.96R
HILLSDALE      PTSUNNY   77  67  70 N7        30.00S
HOWELL         CLOUDY    72  57  58 NW6       30.02F

CITY           SKY/WX    TMP DP  RH WIND       PRES   REMARKS
JACKSON        PTSUNNY   75  67  76 N9        30.01S
LAMBERTVILLE   MOSUNNY   82  69  65 NW5       29.98S
LANSING        PTSUNNY   76  57  51 N10       30.04S
LAPEER         PTSUNNY   74  56  54 N9G17     30.02S
MASON          CLOUDY    72  60  64 N6        30.03S
MONROE         HVY RAIN  71  70  97 W13       29.96S
MT. CLEMENS    CLOUDY    75  64  69 N15       29.97S
PONTIAC        PTSUNNY   74  60  61 NW12      30.00S
PORT HOPE        N/A     73  63  70 VRB3G17   30.02S
PORT HURON     CLOUDY    72  64  78 N5        30.00S
TRI CITIES     PTSUNNY   74  61  63 NE10      30.04S
MIDLAND        PTSUNNY   76  56  51 N8        30.03S
TROY           CLOUDY    79  63  59 N8        30.00S
SAGINAW HB     MOSUNNY   73  61  64 N9        30.03F
$$
MIZ043>046-050>051-056>058-064>065-071>073-077>080-312000-
SOUTHWEST LOWER MICHIGAN

CITY           SKY/WX    TMP DP  RH WIND       PRES   REMARKS
BATTLE CREEK   CLOUDY    74  68  81 N9        30.02F
BENTON HARBOR  MOSUNNY   75  59  57 VRB6G21   30.04R
BIG RAPIDS     PTSUNNY   75  54  48 N10       30.06S
COLDWATER      PTSUNNY   77  67  71 N8G18     30.00S
FREMONT        PTSUNNY   75  48  39 N6        30.05F
HOLLAND        SUNNY     78  56  46 VRB5      30.04F
GRAND RAPIDS   MOSUNNY   77  55  46 N9        30.04S
IONIA          FAIR      75  57  52 N13       30.03S
KALAMAZOO      PTSUNNY   78  65  63 N15       30.01S
LUDINGTON      MOSUNNY   73  57  57 N16G22    30.07S
MARSHALL       CLOUDY    76  66  71 N5        30.01F
MOUNT PLEASANT MOSUNNY   76  57  51 N8G17     30.04S
MUSKEGON       MOSUNNY   79  56  45 NE13      30.05F
SOUTH HAVEN    SUNNY     76  62  61 N15G21    30.04R
$$
MIZ016>042-312000-
NORTHERN LOWER MICHIGAN

CITY           SKY/WX    TMP DP  RH WIND       PRES   REMARKS
ALPENA         MOSUNNY   76  50  40 N14       30.05S
BEAVER ISLAND  CLOUDY    70  57  63 NW8       30.09S
BELLAIRE       CLOUDY    71  54  54 NW6G18    30.08S
CADILLAC       PTSUNNY   71  51  48 NW9       30.08S
CHARLEVOIX     CLOUDY    71  56  59 N12G17    30.11S
FRANKFORT      SUNNY     74  55  51 N9        30.10S
GAYLORD        CLOUDY    71  50  47 NW6       30.08S
GRAYLING       CLOUDY    72  51  48 N10G21    30.08S
HARBOR SPRINGS PTSUNNY   72  55  55 NW9       30.07S
HOUGHTON LAKE  MOSUNNY   75  50  41 N12G20    30.07S
MANISTEE       MOSUNNY   73  57  57 N12       30.08S
OSCODA         PTSUNNY   74  54  50 NE10      30.03S
PELLSTON       CLOUDY    73  53  49 NW13      30.07S
ROGERS CITY    MOSUNNY   72  56  58 NW12G18   30.06S
TRAVERSE CITY  PTSUNNY   74  54  49 N9G22     30.07S
$$
MIZ007>008-015-312000-
EASTERN UPPER MICHIGAN

CITY           SKY/WX    TMP DP  RH WIND       PRES   REMARKS
KINROSS        SUNNY     70  55  59 NW15      30.06S
MACKINAC ISLAN CLOUDY    70  54  55 N6        30.06S
NEWBERRY       MOSUNNY   71  54  55 NW12G21   30.09R
S. S. MARIE    SUNNY     70  55  59 NW17G24   30.05S
MUNISING         N/A     68  57  68 NW13      30.12S
$$
MIZ004>006-011>014-085-312000-
CENTRAL UPPER MICHIGAN

CITY           SKY/WX    TMP DP  RH WIND       PRES   REMARKS
MANISTIQUE     CLOUDY    72  53  51 NW15      30.09S
ESCANABA       CLOUDY    71  57  61 N10       30.12R
MENOMINEE      CLOUDY   N/A N/A N/A N8        30.12R
SAWYER-GWINN   CLOUDY    64  57  77 NE9       30.16S
$$
MIZ001>003-009>011-084-312000-
WESTERN UPPER MICHIGAN

CITY           SKY/WX    TMP DP  RH WIND       PRES   REMARKS
IRON MOUNTAIN  CLOUDY    71  52  50 N12       30.14R
HOUGHTON       CLOUDY    69  55  60 N12       30.16S
COPPER HARBOR    N/A     66  59  78 N12       30.15R
IRONWOOD       CLOUDY    68  55  63 NW8       30.21R
$$

ABBREVIATIONS USED IN REMARKS
   TC - TEMPERATURE IN CELSIUS
  WCI - WIND CHILL INDEX
   HX - HEAT INDEX
  VSB - VISIBILITY





USA.gov is the U.S. government's official web portal to all federal, state and local government web resources and services.